Location: Москва
(55.7504°N, 37.6175°E)
Time: 05:08:16
(UTC+03:00)

Envisat - Pass Details

Date: 26 September 2021
Orbit: 764 x 766 km, 98.2° (Epoch: 17 October)

Event Time Altitude Azimuth Distance (km) Brightness Sun altitude
Rises 04:36:53 0° 22° (NNE) 3,246 6.9 -15.4°
Reaches altitude 10° 04:39:42 10° 38° (NE) 2,314 6.4 -15.0°
Maximum altitude 04:43:40 22° 89° (E) 1,612 5.6 -14.5°
Drops below altitude 10° 04:47:37 10° 140° (SE) 2,301 5.7 -14.0°
Sets 04:50:24 0° 155° (SSE) 3,221 6.3 -13.6°
